Home > Weather > Knoxville > Past weeks

Flag for USA Past Weather in Knoxville, Tennessee, USA — Yesterday and Last 2 Weeks

Now
72 °F

Scattered clouds.


Feels Like: 72 °F
Forecast: 63 / 84 °F
Wind: 5 mph from Northeast

Location: McGhee Tyson Airport

Current Time: May 29, 2016 at 9:20:04 PM

Latest Report: May 29, 2016 at 8:53 PM


Visibility: 10 mi

Pressure: 30.01 "Hg

Humidity: 81%

Dew Point: 66 °F

Location of KnoxvilleLocation

Past Weather in Knoxville — Graph

°F

Knoxville Temperature Yesterday

Maximum temperature yesterday: 85 °F (at 4:53 PM)
Minimum temperature yesterday: 64 °F (at 4:53 AM)
Average temperature yesterday: 73 °F

High & Low Weather Summary for the Past Weeks

 TemperatureHumidityPressure
High85 °F (May 28, 4:53 PM)100% (May 28, 2:53 AM)30.24 "Hg (May 28, 2:53 AM)
Low42 °F (May 15, 5:53 AM)29% (May 24, 5:53 PM)29.91 "Hg (May 22, 7:53 PM)
Average67 °F67%30.06 "Hg
* Reported May 14 7:53 PM — May 29 7:53 PM, Knoxville, Weather by CustomWeather, © 2016

Note: Actual official high and low records may vary slightly from our data, if they occured in-between our weather recording intervals... More about our weather records

Advertising

Knoxville Weather History for the Previous 24 Hours

Scroll right to see more
 ConditionsComfort  
Time TempWeatherWind HumidityBarometerVisibility
7:53 PM
Sun, May 29
73 °FLight rain. Broken clouds.13 mph81%30.02 "Hg10 mi
6:53 PM74 °FPartly sunny.8 mph76%30.01 "Hg10 mi
5:53 PM81 °FScattered clouds.15 mph56%30.00 "Hg10 mi
4:53 PM85 °FScattered clouds.6 mph50%30.02 "Hg10 mi
3:53 PM81 °FLight rain. Scattered clouds.6 mph58%30.04 "Hg10 mi
2:53 PM82 °FMostly cloudy.10 mph55%30.06 "Hg10 mi
1:53 PM83 °FMostly cloudy.9 mph55%30.07 "Hg10 mi
12:53 PM82 °FOvercast.3 mph56%30.09 "Hg10 mi
11:53 AM79 °FMostly cloudy.3 mph60%30.11 "Hg10 mi
9:53 AM77 °FHigh level clouds.3 mph60%30.11 "Hg10 mi
8:53 AM73 °FOvercast.No wind66%30.11 "Hg10 mi
7:53 AM71 °FBroken clouds.No wind73%30.11 "Hg10 mi
6:53 AM70 °FOvercast.6 mph76%30.10 "Hg10 mi
5:53 AM71 °FPassing clouds.No wind76%30.08 "Hg10 mi
4:53 AM71 °FMostly cloudy.5 mph76%30.07 "Hg10 mi
3:53 AM71 °FMostly cloudy.3 mph73%30.07 "Hg10 mi
2:53 AM73 °FMostly cloudy.7 mph69%30.08 "Hg10 mi
11:53 PM
Sat, May 28
72 °FMostly cloudy.3 mph81%30.07 "Hg10 mi
10:53 PM75 °FOvercast.No wind74%30.07 "Hg10 mi
9:53 PM77 °FOvercast.No wind69%30.06 "Hg10 mi
Weather by CustomWeather, © 2016

See weather overviewHow to use our weather pages